DW4174 Weather Reports


time (UTC)temp
F
wind
direction
speed
knots
gust
knots
rain 1hr
in
rain 24hr
in
rain mn
in
humidity
%
barometer
mb
20260906094930 83 0 0.0 0.0 0.00 0.00 0.00 45 1009.2
20260906094030 84 0 0.0 0.0 0.00 0.00 0.00 45 1009.2
20260906093130 84 0 0.0 0.0 0.00 0.00 0.00 44 1009.1
20260906092230 84 0 0.0 0.0 0.00 0.00 0.00 44 1009.1
20260906091330 84 0 0.0 0.0 0.00 0.00 0.00 44 1009.1
20260906084630 85 0 0.0 0.0 0.00 0.00 0.00 43 1009.3
20260906083730 86 0 0.0 0.0 0.00 0.00 0.00 42 1009.2
20260906081030 86 0 0.0 0.0 0.00 0.00 0.00 41 1009.5
20260906080130 87 0 0.0 0.0 0.00 0.00 0.00 40 1009.5
20260906075230 87 49 0.0 0.9 0.00 0.00 0.00 40 1009.5
20260906074330 87 49 0.0 0.9 0.00 0.00 0.00 40 1009.5
20260906073430 86 49 0.0 0.9 0.00 0.00 0.00 41 1009.5
20260906071630 87 49 0.0 0.9 0.00 0.00 0.00 39 1009.5
20260906070730 88 49 0.0 0.9 0.00 0.00 0.00 39 1009.6
20260906065830 88 49 0.0 0.9 0.00 0.00 0.00 39 1009.7
20260906064930 87 0 0.0 0.0 0.00 0.00 0.00 39 1009.7
20260906064030 87 0 0.0 0.0 0.00 0.00 0.00 39 1009.7
20260906063130 88 0 0.0 0.0 0.00 0.00 0.00 39 1009.8
20260906062230 88 51 0.0 1.7 0.00 0.00 0.00 38 1009.7
20260906061330 88 0 0.0 0.0 0.00 0.00 0.00 38 1009.7
20260906054630 89 0 0.0 0.0 0.00 0.00 0.00 37 1009.8
20260906053730 89 57 0.0 0.9 0.00 0.00 0.00 36 1009.8
20260906052830 90 57 0.0 0.9 0.00 0.00 0.00 36 1009.8
20260906051930 90 57 0.0 0.9 0.00 0.00 0.00 35 1009.8
20260906051030 91 56 0.0 2.6 0.00 0.00 0.00 34 1009.9
20260906050130 91 19 0.0 1.7 0.00 0.00 0.00 34 1009.9
20260906045230 92 325 0.0 1.7 0.00 0.00 0.00 33 1009.7
20260906044330 92 323 0.9 2.6 0.00 0.00 0.00 33 1009.8
20260906042530 93 322 1.7 5.2 0.00 0.00 0.00 32 1009.8
20260906041630 93 311 2.6 6.1 0.00 0.00 0.00 32 1009.8
20260906040730 93 305 2.6 7.0 0.00 0.00 0.00 31 1009.9
20260906035830 93 305 2.6 7.0 0.00 0.00 0.00 31 1009.8
20260906034930 94 307 2.6 7.8 0.00 0.00 0.00 31 1009.8
20260906034030 94 312 3.5 7.0 0.00 0.00 0.00 31 1009.7
20260906033131 94 312 4.3 8.7 0.00 0.00 0.00 31 1009.5
20260906032230 94 306 4.3 9.6 0.00 0.00 0.00 30 1009.6
20260906031330 94 304 4.3 9.6 0.00 0.00 0.00 30 1009.4
20260906030430 94 308 5.2 7.8 0.00 0.00 0.00 30 1009.5
20260906025530 95 308 6.1 11.3 0.00 0.00 0.00 29 1009.4
20260906023730 96 306 5.2 10.4 0.00 0.00 0.00 28 1009.2
20260906022830 96 300 5.2 10.4 0.00 0.00 0.00 28 1009.1
20260906021930 96 302 5.2 11.3 0.00 0.00 0.00 28 1009.0
20260906021030 96 312 4.3 9.6 0.00 0.00 0.00 27 1009.0
20260906020130 96 295 4.3 8.7 0.00 0.00 0.00 27 1009.0
20260906015230 97 291 6.1 9.6 0.00 0.00 0.00 27 1008.9
20260906014330 97 291 4.3 8.7 0.00 0.00 0.00 27 1009.1
20260906013430 97 307 5.2 9.6 0.00 0.00 0.00 27 1009.1
20260906012530 98 299 6.1 10.4 0.00 0.00 0.00 26 1009.2
20260906011630 98 295 7.0 12.2 0.00 0.00 0.00 26 1009.2
20260906010730 99 288 7.0 12.2 0.00 0.00 0.00 26 1009.2
20260906005829 99 301 6.1 12.2 0.00 0.00 0.00 26 1009.1
20260906004030 100 301 6.1 11.3 0.00 0.00 0.00 25 1009.1
20260906003130 100 309 7.0 13.0 0.00 0.00 0.00 25 1009.2
20260906002229 101 290 7.0 12.2 0.00 0.00 0.00 24 1009.2
20260906001330 101 293 6.1 11.3 0.00 0.00 0.00 24 1009.1
20260906000430 101 296 7.0 12.2 0.00 0.00 0.00 24 1009.1
20260905235529 102 283 7.0 11.3 0.00 0.00 0.00 25 1009.0
20260905234630 102 280 7.0 15.6 0.00 0.00 0.00 24 1009.1
20260905233730 103 299 7.0 13.9 0.00 0.00 0.00 24 1009.1
20260905232829 103 281 7.0 13.0 0.00 0.00 0.00 25 1009.1
20260905231929 103 299 6.1 9.6 0.00 0.00 0.00 25 1009.1
20260905231029 102 299 6.1 13.9 0.00 0.00 0.00 25 1009.1
20260905230129 103 301 7.8 13.9 0.00 0.00 0.00 26 1009.2
20260905225230 103 291 4.3 16.5 0.00 0.00 0.00 26 1009.1
20260905224329 102 352 1.7 10.4 0.00 0.00 0.00 28 1009.1
20260905223430 101 26 4.3 10.4 0.00 0.00 0.00 28 1009.1
20260905221630 102 280 6.1 12.2 0.00 0.00 0.00 28 1009.4
20260905215829 100 328 4.3 7.8 0.00 0.00 0.00 30 1009.6
20260905214929 100 307 6.1 12.2 0.00 0.00 0.00 29 1009.9
20260905214029 101 284 3.5 11.3 0.00 0.00 0.00 29 1009.9
20260905213129 102 164 4.3 10.4 0.00 0.00 0.00 28 1010.1
20260905212229 104 257 6.1 8.7 0.00 0.00 0.00 27 1010.1
20260905211329 104 278 5.2 11.3 0.00 0.00 0.00 27 1010.2
20260905210429 103 257 1.7 12.2 0.00 0.00 0.00 28 1010.4
20260905205529 101 276 3.5 7.0 0.00 0.00 0.00 29 1010.4
20260905204630 103 270 3.5 8.7 0.00 0.00 0.00 28 1010.6
20260905203729 101 285 3.5 7.0 0.00 0.00 0.00 29 1010.8
20260905202830 103 268 2.6 7.0 0.00 0.00 0.00 27 1010.9
20260905201929 101 182 2.6 8.7 0.00 0.00 0.00 28 1011.0
20260905201029 102 212 1.7 8.7 0.00 0.00 0.00 28 1011.0
20260905200129 100 161 1.7 6.1 0.00 0.00 0.00 30 1011.1
20260905195229 101 133 1.7 5.2 0.00 0.00 0.00 28 1011.3
20260905194329 100 239 1.7 3.5 0.00 0.00 0.00 29 1011.4
20260905192529 100 218 2.6 7.8 0.00 0.00 0.00 28 1011.7
20260905191629 99 214 1.7 7.8 0.00 0.00 0.00 29 1011.8
20260905190729 98 152 1.7 5.2 0.00 0.00 0.00 30 1012.0
20260905185829 99 158 1.7 6.1 0.00 0.00 0.00 30 1012.2
20260905184929 99 219 2.6 6.1 0.00 0.00 0.00 29 1012.2
20260905183129 100 319 1.7 5.2 0.00 0.00 0.00 29 1012.5
20260905182229 99 252 1.7 7.8 0.00 0.00 0.00 30 1012.5
20260905181329 98 270 0.9 5.2 0.00 0.00 0.00 31 1012.6
20260905180429 98 215 1.7 4.3 0.00 0.00 0.00 31 1012.6
20260905175529 98 146 0.9 2.6 0.00 0.00 0.00 31 1012.6
20260905174629 96 148 1.7 3.5 0.00 0.00 0.00 32 1012.7
20260905173729 96 133 2.6 5.2 0.00 0.00 0.00 32 1012.7
20260905172829 96 81 0.9 6.1 0.00 0.00 0.00 32 1012.6
20260905171929 95 61 1.7 3.5 0.00 0.00 0.00 34 1012.6
20260905171029 96 76 1.7 5.2 0.00 0.00 0.00 32 1012.7
20260905170129 95 101 0.9 3.5 0.00 0.00 0.00 34 1012.7
20260905164329 93 98 0.9 2.6 0.00 0.00 0.00 35 1012.6
20260905163429 94 97 0.9 6.1 0.00 0.00 0.00 35 1012.6
20260905162529 93 102 1.7 3.5 0.00 0.00 0.00 37 1012.5
20260905160729 92 238 0.9 1.7 0.00 0.00 0.00 39 1012.6
20260905155829 92 205 0.9 2.6 0.00 0.00 0.00 40 1012.7
20260905154929 90 130 0.9 2.6 0.00 0.00 0.00 41 1012.6
20260905153129 90 170 0.9 2.6 0.00 0.00 0.00 43 1012.4
20260905152229 89 177 0.9 2.6 0.00 0.00 0.00 44 1012.3
20260905151329 88 178 0.9 1.7 0.00 0.00 0.00 45 1012.2
20260905150429 88 181 0.9 2.6 0.00 0.00 0.00 45 1012.2
20260905144629 88 93 0.0 4.3 0.00 0.00 0.00 44 1012.2
20260905143729 88 37 0.0 1.7 0.00 0.00 0.00 42 1012.2
20260905142829 87 0 0.0 0.0 0.00 0.00 0.00 44 1012.1
20260905141929 87 0 0.0 0.0 0.00 0.00 0.00 44 1012.0
20260905141029 86 0 0.0 0.0 0.00 0.00 0.00 46 1011.9
20260905135229 84 0 0.0 0.0 0.00 0.00 0.00 48 1011.8
20260905134329 84 0 0.0 0.0 0.00 0.00 0.00 48 1011.6
20260905133429 82 0 0.0 0.0 0.00 0.00 0.00 50 1011.4
20260905131629 82 0 0.0 0.0 0.00 0.00 0.00 50 1011.3
20260905130729 82 0 0.0 0.0 0.00 0.00 0.00 50 1011.2
20260905125829 82 0 0.0 0.0 0.00 0.00 0.00 49 1011.1
20260905124929 82 0 0.0 0.0 0.00 0.00 0.00 48 1011.0
20260905124028 82 0 0.0 0.0 0.00 0.00 0.00 49 1011.1
20260905122228 83 0 0.0 0.0 0.00 0.00 0.00 47 1011.0
20260905121328 83 36 0.0 0.9 0.00 0.00 0.00 47 1010.9
20260905120429 83 36 0.0 0.9 0.00 0.00 0.00 47 1010.7
20260905115529 82 0 0.0 0.0 0.00 0.00 0.00 48 1010.7
20260905114628 83 0 0.0 0.0 0.00 0.00 0.00 47 1010.7
20260905113729 84 37 0.0 0.9 0.00 0.00 0.00 46 1010.7
20260905112829 83 36 0.0 0.9 0.00 0.00 0.00 47 1010.6
20260905111928 84 0 0.0 0.0 0.00 0.00 0.00 46 1010.6
20260905111028 84 0 0.0 0.0 0.00 0.00 0.00 46 1010.6
20260905110128 84 0 0.0 0.0 0.00 0.00 0.00 45 1010.5
20260905105229 84 0 0.0 0.0 0.00 0.00 0.00 45 1010.5
20260905104328 84 0 0.0 0.0 0.00 0.00 0.00 44 1010.5
20260905103428 84 0 0.0 0.0 0.00 0.00 0.00 44 1010.4
20260905102528 85 0 0.0 0.0 0.00 0.00 0.00 44 1010.3
20260905101628 86 0 0.0 0.0 0.00 0.00 0.00 43 1010.4
20260905100728 86 0 0.0 0.0 0.00 0.00 0.00 42 1010.3